User: anonymous   Login
Location: Fort Wayne
(41.1310°N, 85.1290°W)
Time: 07:12:41
(UTC-04:00)
Language:

Helios 1B - Orbit

View from above orbital plane
View from above orbital plane
View from above satellite
View from above satellite

Ground track
Ground track

The orbit data is extracted from the following two-line orbital elements,

1 25977U 99064A   15143.83138129  .00000819  00000-0  11155-3 0  9991
2 25977 098.1409 231.8632 0001440 148.1373 211.9926 14.81461830832137
Epoch (UTC): 23 May 2015 19:57:11
Eccentricity: 0.0001440
inclination: 98.1409°
perigee height: 624 km
apogee height: 626 km
right ascension of ascending node: 231.8632°
argument of perigee: 148.1373°
revolutions per day: 14.81461830
mean anomaly at epoch: 211.9926°
orbit number at epoch: 83213

The dashed part of the orbit path shows where the satellite is in the earth's shadow,  

DLR